{"data":{"norad_id":64204,"epoch":"2026-09-19T22:48:29.764800Z","epoch_age_seconds":187903,"freshness":"STALE","line1":"1 64204U 25117B   26262.95034450  .00016419  00000+0  49594-3 0  9994","line2":"2 64204  53.1580 214.0439 0002348  64.5941 295.5304 15.34403960 74317","mean_motion":15.3440396,"eccentricity":0.0002348,"inclination_deg":53.158,"raan_deg":214.0439,"arg_perigee_deg":64.5941,"mean_anomaly_deg":295.5304,"bstar":0.00049594,"rev_number":7431,"period_min":93.847515878413,"perigee_km":461.08524375307,"apogee_km":464.29769680271,"semimajor_km":6840.8284702779,"source":"CELESTRAK","updated_at":"2026-09-21T09:00:35.270021Z"}}